| time (UTC) | temp F | wind direction | speed MPH | gust MPH | rain 1hr in | rain 24hr in | rain mn in | humidity % | barometer mb |
| 20260901103422 | 59 | 219 | 3.0 | 2.0 | 0.00 | 0.00 | 0.00 | 79 | 1011.1 |
| 20260901102320 | 58 | 187 | 3.0 | 8.0 | 0.00 | 0.00 | 0.00 | 79 | 1011.1 |
| 20260901101821 | 58 | 198 | 3.0 | 8.0 | 0.00 | 0.00 | 0.00 | 79 | 1010.9 |
| 20260901101317 | 58 | 205 | 2.0 | 1.0 | 0.00 | 0.00 | 0.00 | 79 | 1010.9 |
| 20260901100412 | 59 | 188 | 2.0 | 7.0 | 0.00 | 0.00 | 0.00 | 79 | 1010.9 |
| 20260901100121 | 58 | 205 | 2.0 | 6.0 | 0.00 | 0.00 | 0.00 | 79 | 1011.0 |
| 20260901095646 | 59 | 144 | 2.0 | 9.0 | 0.00 | 0.00 | 0.00 | 79 | 1010.9 |
| 20260901094409 | 59 | 212 | 3.0 | 9.0 | 0.00 | 0.00 | 0.00 | 79 | 1011.0 |
| 20260901093909 | 58 | 219 | 3.0 | 9.0 | 0.00 | 0.00 | 0.00 | 79 | 1011.2 |
| 20260901093409 | 58 | 179 | 2.0 | 6.0 | 0.00 | 0.00 | 0.00 | 79 | 1011.1 |
| 20260901092904 | 58 | 163 | 2.0 | 1.0 | 0.00 | 0.00 | 0.00 | 79 | 1011.1 |
| 20260901091545 | 59 | 135 | 3.0 | 0.0 | 0.00 | 0.00 | 0.00 | 79 | 1011.0 |
| 20260901090208 | 59 | 178 | 2.0 | 9.0 | 0.00 | 0.00 | 0.00 | 79 | 1011.1 |
| 20260901085714 | 59 | 213 | 3.0 | 6.0 | 0.00 | 0.00 | 0.00 | 79 | 1011.2 |
| 20260901084529 | 58 | 185 | 3.0 | 10.0 | 0.00 | 0.00 | 0.00 | 79 | 1011.2 |
| 20260901084034 | 59 | 153 | 3.0 | 2.0 | 0.00 | 0.00 | 0.00 | 79 | 1011.1 |
| 20260901082937 | 59 | 173 | 2.0 | 7.0 | 0.00 | 0.00 | 0.00 | 79 | 1011.2 |
| 20260901082437 | 59 | 163 | 2.0 | 1.0 | 0.00 | 0.00 | 0.00 | 79 | 1011.2 |
| 20260901081031 | 59 | 180 | 2.0 | 11.0 | 0.00 | 0.00 | 0.00 | 79 | 1011.2 |
| 20260901080530 | 59 | 190 | 2.0 | 9.0 | 0.00 | 0.00 | 0.00 | 79 | 1011.2 |
| 20260901080524 | 59 | 183 | 3.0 | 11.0 | 0.00 | 0.00 | 0.00 | 79 | 1011.1 |
| 20260901080231 | 59 | 169 | 3.0 | 9.0 | 0.00 | 0.00 | 0.00 | 79 | 1011.1 |
| 20260901075028 | 59 | 171 | 3.0 | 1.0 | 0.00 | 0.00 | 0.00 | 79 | 1011.1 |
| 20260901075021 | 59 | 204 | 3.0 | 11.0 | 0.00 | 0.00 | 0.00 | 79 | 1011.1 |
| 20260901073321 | 59 | 161 | 3.0 | 9.0 | 0.00 | 0.00 | 0.00 | 79 | 1010.9 |
| 20260901072824 | 59 | 171 | 3.0 | 0.0 | 0.00 | 0.00 | 0.00 | 79 | 1010.9 |
| 20260901071346 | 59 | 171 | 3.0 | 2.0 | 0.00 | 0.00 | 0.00 | 78 | 1011.0 |
| 20260901065954 | 59 | 180 | 3.0 | 7.0 | 0.00 | 0.00 | 0.00 | 78 | 1010.9 |
| 20260901065457 | 59 | 195 | 3.0 | 2.0 | 0.00 | 0.00 | 0.00 | 78 | 1010.9 |
| 20260901064012 | 59 | 202 | 3.0 | 2.0 | 0.00 | 0.00 | 0.00 | 78 | 1011.0 |
| 20260901063203 | 59 | 180 | 3.0 | 9.0 | 0.00 | 0.00 | 0.00 | 78 | 1010.9 |
| 20260901062158 | 59 | 197 | 3.0 | 0.0 | 0.00 | 0.00 | 0.00 | 78 | 1010.9 |
| 20260901060709 | 60 | 172 | 3.0 | 7.0 | 0.00 | 0.00 | 0.00 | 77 | 1010.8 |
| 20260901060208 | 60 | 164 | 3.0 | 7.0 | 0.00 | 0.00 | 0.00 | 77 | 1010.7 |
| 20260901055706 | 60 | 168 | 3.0 | 4.0 | 0.00 | 0.00 | 0.00 | 77 | 1010.6 |
| 20260901054417 | 60 | 190 | 3.0 | 7.0 | 0.00 | 0.00 | 0.00 | 76 | 1010.7 |
| 20260901053918 | 60 | 198 | 3.0 | 4.0 | 0.00 | 0.00 | 0.00 | 76 | 1010.6 |
| 20260901053058 | 61 | 197 | 3.0 | 9.0 | 0.00 | 0.00 | 0.00 | 75 | 1010.7 |
| 20260901052059 | 61 | 213 | 3.0 | 7.0 | 0.00 | 0.00 | 0.00 | 75 | 1010.7 |
| 20260901050652 | 62 | 175 | 3.0 | 11.0 | 0.00 | 0.00 | 0.00 | 74 | 1010.8 |
| 20260901050648 | 61 | 198 | 3.0 | 11.0 | 0.00 | 0.00 | 0.00 | 74 | 1010.7 |
| 20260901045646 | 62 | 184 | 3.0 | 10.0 | 0.00 | 0.00 | 0.00 | 73 | 1010.7 |
| 20260901045146 | 62 | 194 | 3.0 | 7.0 | 0.00 | 0.00 | 0.00 | 73 | 1010.7 |
| 20260901044647 | 62 | 202 | 4.0 | 2.0 | 0.00 | 0.00 | 0.00 | 73 | 1010.6 |
| 20260901043327 | 62 | 183 | 4.0 | 2.0 | 0.00 | 0.00 | 0.00 | 72 | 1010.5 |
| 20260901042236 | 63 | 213 | 5.0 | 5.0 | 0.00 | 0.00 | 0.00 | 72 | 1010.5 |
| 20260901041325 | 64 | 172 | 3.0 | 6.0 | 0.00 | 0.00 | 0.00 | 70 | 1010.2 |
| 20260901040329 | 64 | 227 | 3.0 | 4.0 | 0.00 | 0.00 | 0.00 | 69 | 1010.2 |
| 20260901035142 | 64 | 182 | 3.0 | 1.0 | 0.00 | 0.00 | 0.00 | 69 | 1010.1 |
| 20260901033743 | 66 | 202 | 2.0 | 5.0 | 0.00 | 0.00 | 0.00 | 66 | 1009.9 |
| 20260901033739 | 65 | 201 | 2.0 | 6.0 | 0.00 | 0.00 | 0.00 | 67 | 1010.0 |
| 20260901032741 | 66 | 225 | 3.0 | 1.0 | 0.00 | 0.00 | 0.00 | 66 | 1009.9 |
| 20260901031630 | 67 | 225 | 1.0 | 4.0 | 0.00 | 0.00 | 0.00 | 64 | 1009.6 |
| 20260901031626 | 66 | 234 | 2.0 | 11.0 | 0.00 | 0.00 | 0.00 | 65 | 1009.6 |
| 20260901030622 | 67 | 232 | 2.0 | 0.0 | 0.00 | 0.00 | 0.00 | 63 | 1009.4 |
| 20260901025306 | 67 | 234 | 5.0 | 4.0 | 0.00 | 0.00 | 0.00 | 62 | 1009.2 |
| 20260901024432 | 69 | 252 | 5.0 | 4.0 | 0.00 | 0.00 | 0.00 | 59 | 1009.2 |
| 20260901022834 | 69 | 245 | 5.0 | 7.0 | 0.00 | 0.00 | 0.00 | 58 | 1009.1 |
| 20260901022335 | 70 | 211 | 6.0 | 4.0 | 0.00 | 0.00 | 0.00 | 58 | 1009.2 |
| 20260901021046 | 71 | 233 | 8.0 | 13.0 | 0.00 | 0.00 | 0.00 | 56 | 1009.1 |
| 20260901020547 | 72 | 240 | 7.0 | 4.0 | 0.00 | 0.00 | 0.00 | 54 | 1009.1 |
| 20260901015110 | 73 | 240 | 7.0 | 9.0 | 0.00 | 0.00 | 0.00 | 52 | 1008.9 |
| 20260901013818 | 75 | 250 | 6.0 | 8.0 | 0.00 | 0.00 | 0.00 | 49 | 1009.0 |
| 20260901012534 | 76 | 250 | 5.0 | 4.0 | 0.00 | 0.00 | 0.00 | 47 | 1009.1 |
| 20260901011409 | 77 | 238 | 4.0 | 6.0 | 0.00 | 0.00 | 0.00 | 47 | 1009.0 |
| 20260901010059 | 78 | 225 | 5.0 | 5.0 | 0.00 | 0.00 | 0.00 | 46 | 1009.1 |
| 20260901004838 | 78 | 235 | 6.0 | 5.0 | 0.00 | 0.00 | 0.00 | 46 | 1009.1 |
| 20260901003450 | 80 | 211 | 5.0 | 4.0 | 0.00 | 0.00 | 0.00 | 45 | 1009.2 |
| 20260901002012 | 80 | 225 | 5.0 | 4.0 | 0.00 | 0.00 | 0.00 | 45 | 1009.2 |
| 20260901000647 | 81 | 242 | 5.0 | 9.0 | 0.00 | 0.00 | 0.00 | 44 | 1009.3 |
| 20260831235453 | 82 | 205 | 4.0 | 2.0 | 0.00 | 0.00 | 0.00 | 43 | 1009.4 |
| 20260831234243 | 81 | 238 | 5.0 | 10.0 | 0.00 | 0.00 | 0.00 | 43 | 1009.6 |
| 20260831233747 | 81 | 218 | 6.0 | 1.0 | 0.00 | 0.00 | 0.00 | 43 | 1009.5 |
| 20260831232641 | 82 | 267 | 4.0 | 6.0 | 0.00 | 0.00 | 0.00 | 42 | 1009.5 |
| 20260831231129 | 82 | 221 | 5.0 | 4.0 | 0.00 | 0.00 | 0.00 | 42 | 1009.7 |
| 20260831230017 | 82 | 211 | 2.0 | 3.0 | 0.00 | 0.00 | 0.00 | 42 | 1009.8 |
| 20260831225217 | 82 | 239 | 5.0 | 5.0 | 0.00 | 0.00 | 0.00 | 41 | 1010.2 |
| 20260831223858 | 81 | 238 | 4.0 | 4.0 | 0.00 | 0.00 | 0.00 | 42 | 1010.0 |
| 20260831221827 | 81 | 228 | 4.0 | 12.0 | 0.00 | 0.00 | 0.00 | 42 | 1010.3 |
| 20260831221328 | 82 | 227 | 5.0 | 6.0 | 0.00 | 0.00 | 0.00 | 42 | 1010.4 |
| 20260831221036 | 82 | 184 | 5.0 | 1.0 | 0.00 | 0.00 | 0.00 | 42 | 1010.5 |
| 20260831214623 | 81 | 232 | 4.0 | 11.0 | 0.00 | 0.00 | 0.00 | 43 | 1010.6 |
| 20260831214123 | 81 | 229 | 4.0 | 11.0 | 0.00 | 0.00 | 0.00 | 43 | 1010.6 |
| 20260831213630 | 81 | 200 | 3.0 | 4.0 | 0.00 | 0.00 | 0.00 | 43 | 1010.5 |
| 20260831212532 | 80 | 172 | 3.0 | 10.0 | 0.00 | 0.00 | 0.00 | 45 | 1010.6 |
| 20260831212029 | 80 | 175 | 4.0 | 12.0 | 0.00 | 0.00 | 0.00 | 43 | 1010.7 |
| 20260831211528 | 80 | 247 | 4.0 | 12.0 | 0.00 | 0.00 | 0.00 | 43 | 1010.8 |
| 20260831211030 | 81 | 259 | 4.0 | 3.0 | 0.00 | 0.00 | 0.00 | 42 | 1010.9 |
| 20260831205924 | 80 | 165 | 3.0 | 7.0 | 0.00 | 0.00 | 0.00 | 43 | 1010.8 |
| 20260831205428 | 79 | 210 | 3.0 | 1.0 | 0.00 | 0.00 | 0.00 | 44 | 1010.8 |
| 20260831204301 | 80 | 101 | 3.0 | 4.0 | 0.00 | 0.00 | 0.00 | 44 | 1010.8 |
| 20260831203503 | 79 | 204 | 3.0 | 11.0 | 0.00 | 0.00 | 0.00 | 46 | 1010.9 |
| 20260831202503 | 79 | 186 | 4.0 | 0.0 | 0.00 | 0.00 | 0.00 | 46 | 1010.9 |
| 20260831201433 | 78 | 167 | 4.0 | 2.0 | 0.00 | 0.00 | 0.00 | 46 | 1011.1 |
| 20260831195501 | 77 | 259 | 5.0 | 4.0 | 0.00 | 0.00 | 0.00 | 47 | 1011.0 |
| 20260831192823 | 78 | 223 | 5.0 | 13.0 | 0.00 | 0.00 | 0.00 | 45 | 1011.4 |
| 20260831192326 | 78 | 224 | 5.0 | 4.0 | 0.00 | 0.00 | 0.00 | 45 | 1011.4 |
| 20260831192322 | 77 | 207 | 4.0 | 13.0 | 0.00 | 0.00 | 0.00 | 46 | 1011.2 |
| 20260831190719 | 77 | 224 | 4.0 | 10.0 | 0.00 | 0.00 | 0.00 | 47 | 1011.2 |
| 20260831190225 | 77 | 169 | 5.0 | 4.0 | 0.00 | 0.00 | 0.00 | 48 | 1011.2 |
| 20260831184938 | 77 | 213 | 5.0 | 4.0 | 0.00 | 0.00 | 0.00 | 48 | 1011.2 |
| 20260831183617 | 76 | 240 | 4.0 | 10.0 | 0.00 | 0.00 | 0.00 | 48 | 1011.1 |
| 20260831183116 | 77 | 184 | 4.0 | 14.0 | 0.00 | 0.00 | 0.00 | 48 | 1011.1 |
| 20260831182622 | 76 | 242 | 5.0 | 11.0 | 0.00 | 0.00 | 0.00 | 49 | 1011.0 |
| 20260831182617 | 77 | 187 | 5.0 | 14.0 | 0.00 | 0.00 | 0.00 | 47 | 1011.1 |
| 20260831182325 | 77 | 233 | 4.0 | 11.0 | 0.00 | 0.00 | 0.00 | 48 | 1011.1 |
| 20260831181112 | 75 | 236 | 5.0 | 3.0 | 0.00 | 0.00 | 0.00 | 49 | 1011.1 |
| 20260831180325 | 75 | 231 | 4.0 | 11.0 | 0.00 | 0.00 | 0.00 | 50 | 1011.1 |
| 20260831175322 | 75 | 196 | 3.0 | 3.0 | 0.00 | 0.00 | 0.00 | 51 | 1011.1 |
| 20260831173742 | 74 | 214 | 2.0 | 10.0 | 0.00 | 0.00 | 0.00 | 51 | 1010.9 |
| 20260831173240 | 74 | 203 | 3.0 | 10.0 | 0.00 | 0.00 | 0.00 | 51 | 1011.0 |
| 20260831172745 | 74 | 211 | 3.0 | 5.0 | 0.00 | 0.00 | 0.00 | 51 | 1010.9 |
| 20260831171658 | 72 | 204 | 3.0 | 6.0 | 0.00 | 0.00 | 0.00 | 55 | 1011.1 |
| 20260831171654 | 73 | 204 | 3.0 | 10.0 | 0.00 | 0.00 | 0.00 | 54 | 1011.0 |
| 20260831170655 | 71 | 175 | 2.0 | 0.0 | 0.00 | 0.00 | 0.00 | 55 | 1010.8 |
| 20260831165406 | 71 | 252 | 3.0 | 6.0 | 0.00 | 0.00 | 0.00 | 57 | 1010.8 |
| 20260831164908 | 71 | 234 | 2.0 | 3.0 | 0.00 | 0.00 | 0.00 | 57 | 1010.8 |
| 20260831163734 | 69 | 234 | 2.0 | 2.0 | 0.00 | 0.00 | 0.00 | 59 | 1010.8 |
| 20260831162440 | 69 | 170 | 2.0 | 1.0 | 0.00 | 0.00 | 0.00 | 61 | 1010.6 |
| 20260831160920 | 67 | 227 | 2.0 | 0.0 | 0.00 | 0.00 | 0.00 | 63 | 1010.5 |
| 20260831155729 | 67 | 202 | 2.0 | 0.0 | 0.00 | 0.00 | 0.00 | 63 | 1010.7 |
| 20260831154152 | 65 | 171 | 1.0 | 4.0 | 0.00 | 0.00 | 0.00 | 66 | 1010.8 |
| 20260831153638 | 65 | 179 | 1.0 | 1.0 | 0.00 | 0.00 | 0.00 | 67 | 1010.7 |
| 20260831152530 | 63 | 204 | 2.0 | 2.0 | 0.00 | 0.00 | 0.00 | 70 | 1010.6 |
| 20260831151050 | 62 | 191 | 2.0 | 3.0 | 0.00 | 0.00 | 0.00 | 72 | 1010.3 |
| 20260831145805 | 62 | 191 | 1.0 | 1.0 | 0.00 | 0.00 | 0.00 | 73 | 1010.3 |
| 20260831144329 | 60 | 209 | 2.0 | 4.0 | 0.00 | 0.00 | 0.00 | 76 | 1010.3 |
| 20260831143834 | 60 | 187 | 2.0 | 2.0 | 0.00 | 0.00 | 0.00 | 76 | 1010.2 |
| 20260831142500 | 59 | 178 | 1.0 | 3.0 | 0.00 | 0.00 | 0.00 | 78 | 1010.0 |
| 20260831141957 | 59 | 175 | 1.0 | 0.0 | 0.00 | 0.00 | 0.00 | 79 | 1009.7 |
| 20260831141026 | 58 | 169 | 1.0 | 3.0 | 0.00 | 0.00 | 0.00 | 79 | 1009.6 |
| 20260831140029 | 58 | 173 | 1.0 | 1.0 | 0.00 | 0.00 | 0.00 | 79 | 1009.6 |
| 20260831135157 | 58 | 186 | 1.0 | 3.0 | 0.00 | 0.00 | 0.00 | 78 | 1009.5 |
| 20260831134155 | 58 | 219 | 1.0 | 1.0 | 0.00 | 0.00 | 0.00 | 77 | 1009.2 |
| 20260831132716 | 59 | 190 | 2.0 | 5.0 | 0.00 | 0.00 | 0.00 | 76 | 1009.1 |
| 20260831132219 | 59 | 225 | 2.0 | 0.0 | 0.00 | 0.00 | 0.00 | 76 | 1009.0 |
| 20260831131017 | 59 | 172 | 2.0 | 6.0 | 0.00 | 0.00 | 0.00 | 74 | 1008.9 |
| 20260831130522 | 59 | 196 | 2.0 | 2.0 | 0.00 | 0.00 | 0.00 | 73 | 1008.8 |
| 20260831125719 | 60 | 217 | 1.0 | 5.0 | 0.00 | 0.00 | 0.00 | 72 | 1008.7 |
| 20260831125440 | 60 | 195 | 2.0 | 5.0 | 0.00 | 0.00 | 0.00 | 71 | 1008.8 |
| 20260831124211 | 60 | 190 | 2.0 | 5.0 | 0.00 | 0.00 | 0.00 | 71 | 1008.7 |
| 20260831123710 | 60 | 208 | 2.0 | 3.0 | 0.00 | 0.00 | 0.00 | 70 | 1008.7 |
| 20260831122221 | 60 | 205 | 2.0 | 3.0 | 0.00 | 0.00 | 0.00 | 69 | 1008.7 |
| 20260831120727 | 61 | 186 | 3.0 | 6.0 | 0.00 | 0.00 | 0.00 | 68 | 1008.5 |
| 20260831120220 | 61 | 182 | 2.0 | 2.0 | 0.00 | 0.00 | 0.00 | 67 | 1008.6 |
| 20260831120216 | 61 | 206 | 2.0 | 5.0 | 0.00 | 0.00 | 0.00 | 68 | 1008.6 |
| 20260831114601 | 62 | 203 | 3.0 | 9.0 | 0.00 | 0.00 | 0.00 | 67 | 1008.6 |
| 20260831114059 | 62 | 188 | 3.0 | 3.0 | 0.00 | 0.00 | 0.00 | 66 | 1008.5 |
| 20260831112719 | 62 | 155 | 2.0 | 0.0 | 0.00 | 0.00 | 0.00 | 66 | 1008.7 |
| 20260831111322 | 62 | 190 | 2.0 | 1.0 | 0.00 | 0.00 | 0.00 | 66 | 1008.7 |
| 20260831105950 | 63 | 194 | 2.0 | 2.0 | 0.00 | 0.00 | 0.00 | 65 | 1008.9 |
| 20260831105542 | 63 | 188 | 3.0 | 5.0 | 0.00 | 0.00 | 0.00 | 64 | 1008.8 |